Regional Weather Roundup
Issued by NWS

Home | Current Version | Previous Version | Text Only | Print | Product List | Glossary Off
Versions: 1 2 3 4 5 6 7 8 9 10 11 12 13 14 15 16 17 18 19 20 21 22 23 24 25 26 27 28 29 30 31 32 33 34 35 36 37 38 39 40 41 42 43 44 45 46 47 48 49 50

776
ASUS43 KTOP 232259
RWRKS

WEATHER ROUNDUP FOR KANSAS
NATIONAL WEATHER SERVICE GOODLAND KS
600 PM CDT WED AUG 23 2017

NOTE:  "FAIR" INDICATES FEW OR NO CLOUDS BELOW 12,000 FEET WITH NO
SIGNIFICANT WEATHER AND/OR OBSTRUCTIONS TO VISIBILITY.

KSZ001>006-013>018-027>032-041>047-240000-
NORTHWEST KANSAS

CITY           SKY/WX    TMP DP  RH WIND       PRES   REMARKS
GOODLAND       SUNNY     83  61  47 S20G25    30.03F
HAYS           SUNNY     85  47  26 SE13      30.03F
HILL CITY      SUNNY     87  44  22 SE15      30.02F
RUSSELL        SUNNY     85  46  25 S13G21    30.03F
$$

KSZ061>065-074>080-084>089-240000-
SOUTHWEST KANSAS

CITY           SKY/WX    TMP DP  RH WIND       PRES   REMARKS
DODGE CITY     SUNNY     85  48  27 SE12      30.06F
ELKHART          N/A     78  66  66 SE9         N/A
GARDEN CITY    SUNNY     82  60  47 S10       30.06F
GREAT BEND     SUNNY     83  49  30 SE12      30.04F
LIBERAL        MOSUNNY   83  64  52 SE10      30.06F
$$

KSZ066>073-081>083-090>101-240000-
SOUTHEAST KANSAS

CITY           SKY/WX    TMP DP  RH WIND       PRES   REMARKS
CHANUTE        SUNNY     80  54  40 NE7       30.06S
COFFEYVILLE    SUNNY     82  56  40 NE9       30.02F
HUTCHINSON     SUNNY     83  51  33 SE8       30.04F
MEDICINE LODGE   N/A     85  48  27 E6        30.02F
NEWTON         SUNNY     80  53  39 SE10      30.06S
PARSONS        SUNNY     80  54  40 VRB6      30.05F
WICHITA INTL   SUNNY     83  51  33 E10       30.03F
WICHITA JABRA  SUNNY     80  55  42 E8        30.04F
WICHITA MCCONL SUNNY     83  51  32 SE10      30.04F
WINFIELD       SUNNY     82  50  32 NE10      30.04F
$$

KSZ007>012-019>026-033>040-048>060-102>105-240000-
NORTHEAST KANSAS

CITY           SKY/WX    TMP DP  RH WIND       PRES   REMARKS
CONCORDIA      SUNNY     79  54  41 SE10      30.05F
EMPORIA        SUNNY     78  54  43 E9        30.06F
LAWRENCE       SUNNY     79  58  48 NE5       30.06F
MANHATTAN      SUNNY     80  57  45 E10       30.05F
OLATHE IND     SUNNY     79  53  40 E7        30.07F
OLATHE EXE     SUNNY     77  56  48 E6        30.07S
SALINA         SUNNY     87  47  24 SE14      30.03F
TOPEKA BILLARD SUNNY     79  57  46 SE6       30.06F
TOPEKA FORBES  SUNNY     80  58  46 E6        30.07F
$$




USA.gov is the U.S. government's official web portal to all federal, state and local government web resources and services.